This is the latest recevied weather packets stored in our database for station/object DW6201. If no packets are shown the sender has not sent any weather packets the latest 1 day(s).
| Time | Temp. | Humidity | Pressure | Rain* | Wind** | Luminosity | Snow |
|---|---|---|---|---|---|---|---|
| 1777990501 | 6.11° C | 52% | 1013.2 hPa | 0 mm | 0.45 m/s, 331° | - | - |
| 1777990201 | 6.11° C | 53% | 1013.2 hPa | 0 mm | 0 m/s | - | - |
| 1777989901 | 6.11° C | 53% | 1013.2 hPa | 0 mm | 0.89 m/s, 328° | - | - |
| 1777989600 | 6.11° C | 52% | 1012.9 hPa | 0 mm | 0 m/s | - | - |
| 1777989301 | 6.67° C | 52% | 1012.9 hPa | 0 mm | 0 m/s | - | - |
| 1777989001 | 6.67° C | 51% | 1012.9 hPa | 0 mm | 0 m/s | - | - |
| 1777988700 | 6.67° C | 55% | 1012.9 hPa | 0 mm | 0.45 m/s, 312° | - | - |
| 1777988400 | 6.11° C | 57% | 1012.9 hPa | 0 mm | 0 m/s | - | - |
| 1777988100 | 6.11° C | 55% | 1012.9 hPa | 0 mm | 0 m/s | - | - |
| 1777987800 | 6.11° C | 58% | 1012.9 hPa | 0 mm | 0.45 m/s, 331° | - | - |
| 1777987501 | 6.11° C | 58% | 1012.9 hPa | 0 mm | 0.45 m/s, 44° | - | - |
| 1777987200 | 5.56° C | 59% | 1012.9 hPa | 0 mm | 0 m/s | - | - |
| 1777986900 | 5.56° C | 59% | 1012.5 hPa | 0 mm | 0.89 m/s, 315° | - | - |
| 1777986600 | 5.56° C | 60% | 1012.5 hPa | 0 mm | 0.45 m/s, 322° | - | - |
| 1777986301 | 5.56° C | 62% | 1012.5 hPa | 0 mm | 0 m/s | - | - |
| 1777986000 | 5.56° C | 62% | 1012.5 hPa | 0 mm | 0.45 m/s, 344° | - | - |
| 1777985700 | 5.56° C | 64% | 1012.5 hPa | 0 mm | 0 m/s | - | - |
| 1777985400 | 5° C | 66% | 1012.5 hPa | 0 mm | 0 m/s | - | - |
| 1777985100 | 4.44° C | 66% | 1012.5 hPa | 0 mm | 0 m/s | - | - |
| 1777984801 | 4.44° C | 67% | 1012.2 hPa | 0 mm | 0 m/s | - | - |
| 1777984500 | 4.44° C | 68% | 1012.2 hPa | 0 mm | 0 m/s | - | - |
| 1777984201 | 3.89° C | 67% | 1012.2 hPa | 0 mm | 0.45 m/s, 325° | - | - |
| 1777983901 | 3.89° C | 68% | 1012.2 hPa | 0 mm | 0 m/s | - | - |
| 1777983601 | 3.33° C | 68% | 1012.2 hPa | 0 mm | 0 m/s | - | - |
| 1777983301 | 3.33° C | 68% | 1012.2 hPa | 0 mm | 0 m/s | - | - |
* Rain latest hour (hover to see other rain measurements)
** Current wind speed in m/s (hover to see current wind gust speed)